Regional Weather Roundup
Issued by NWS Newport/Morehead, NC

Current Version | Previous Version | Text Only | Print | Product List | Glossary On
Versions: 1 2 3 4 5 6 7 8 9 10 11 12 13 14 15 16 17 18 19 20 21 22 23 24 25 26 27 28 29 30 31 32 33 34 35 36 37 38 39 40 41 42 43 44 45 46 47 48 49 50
000 ASUS42 KMHX 241213 RWRMHX WEATHER ROUNDUP FOR EASTERN NORTH CAROLINA NATIONAL WEATHER SERVICE NEWPORT/MOREHEAD CITY NC 800 AM EDT FRI MAR 24 2017 NOTE: "FAIR" INDICATES FEW OR NO CLOUDS BELOW 12,000 FEET WITH NO SIGNIFICANT WEATHER AND/OR OBSTRUCTIONS TO VISIBILITY NCZ015>017-031-032-045>047-102-103-241300- NORTH COAST CITY SKY/WX TMP DP RH WIND PRES REMARKS EDENTON SUNNY 40 33 76 CALM 30.55S ELIZABETH CITY SUNNY 36 33 89 CALM 30.55S KITTY HAWK NOT AVBL MANTEO SUNNY 39 37 92 E3 30.55S $$ NCZ045>047-081-094-103-104-241300- CENTRAL COAST CITY SKY/WX TMP DP RH WIND PRES REMARKS FRISCO SUNNY 48 42 80 NE5 30.54S $$ NCZ095-097-098-100-101-241300- SOUTHERN COAST CITY SKY/WX TMP DP RH WIND PRES REMARKS BEAUFORT SUNNY 46 42 86 NE3 30.53F CEDAR ISLAND NOT AVBL JACKSONVILLE CLEAR 39 35 86 N3 30.54R PINEY ISLAND SUNNY N/A N/A N/A NE6 30.53F WILMINGTON PTCLDY 38 34 85 NE5 30.54R $$ NCZ011>013-027>030-043-044-078>080-089-090>093-098-241300- COASTAL PLAIN CITY SKY/WX TMP DP RH WIND PRES REMARKS AHOSKIE N/A 29 28 95 CALM 30.53F CLINTON CLEAR 39 33 80 CALM 30.54S ELIZABETHTOWN CLEAR 38 33 81 E5 30.53S GOLDSBORO CLEAR 34 34 99 CALM 30.52S GREENVILLE CLEAR 34 32 93 CALM 30.53F HAVELOCK NOT AVBL KENANSVILLE CLEAR 34 32 93 CALM 30.54S KINSTON CLEAR 34 32 93 CALM 30.55S NEW BERN MOSUNNY 38 36 92 CALM 30.56S RICHLANDS CLEAR 38 36 92 NE5 30.54S ROCKY MOUNT CLEAR 32 32 100 CALM 30.53F FOG WASHINGTON SUNNY 34 30 86 CALM 30.55S WHITEVILLE CLEAR 39 32 76 NE5 30.52S $$ AMZ130-135-150-152-154-156-158-170-250-252-270-ANZ085-086-088-633-658-670-241300- MARINE OBSERVATIONS STATION/POSITION TIME TEMP WIND PRES WAVE SWELL AIR SEA DIR/SP/G HT/PER HT/PER (UTC) (F) (DEG/KT/KT) (MB) (FT/S) (FT/S) CHESAPEAKE LIGHT NOT AVBL 64 E VA BEACH 1150 48 48 130/ 8/ 8 1034.2 3/ 8 3/ 8 DUCK 1136 45 48 120/ 7/ 7 1033.7 2 E DUCK 1130 47 N/A 3/ 8 OREGON INLET 1136 46 49 60/ 5/ 6 1034.3 13E OREGON INLT NOT AVBL HATTERAS CG 1136 47 51 60/ 6/ 8 1033.7 DIAMOND BUOY 1150 58 75 180/ 10/ 14 1034.3 5/10 5/10 CAPE LOOKOUT 1200 47 20/ 6/ 8 1033.3 BEAUFORT LAB 1136 44 50 20/ 6/ 8 1032.9 30 SE NEW RVR IN 1108 62 160/ 8/ 14 1033.3 30 SE NEW RVR IN 1143 69 N/A 4/ 7 2/11 27 SE WRIGHTSVLE 1108 62 62 140/ 10/ 14 1031.9 5 SE WRIGHTSVLE 1108 50 56 40/ 12/ 17 1033.2 225 S CAPE HAT 1150 63 72 70/ 14/ 17 1033.3 6/ 8 5/ 8 41 SE CHARLESTON 1050 67 71 100/ 8/ 12 1030.7 5/ 7 5/ 7 $$

USA.gov is the U.S. government's official web portal to all federal, state and local government web resources and services.